timestamp,gas_concentrations,,corrected_fluxes_and_quality_flags,,,,,,,,,,storage_terms,,,turbulence,,,footprint,,
ISOdate,CO2_1_1_1,H2O_1_1_1,Tau_1_1_1,QcTau_1_1_1,H_1_1_1,QcH_1_1_1,LE_1_1_1, QcLE_1_1_1,Fc_1_1_1, QcFc_1_1_1,E_1_1_1, QcE_1_1_1,Sa_1_1_1,Sw_1_1_1,Sc_1_1_1,ustar_1_1_1,MO_length_1_1_1,ZL_1_1_1,Fetchmax_1_1_1,Fetch70_1_1_1,Fetch90_1_1_1
yyyymmddHHMM,[µmol+1mol_a-1],[mmol+1mol_a-1],[kg+1m-1s-2],[#],[W+1m-2],[#],[W+1m-2],[#],[µmol+1s-1m-2],[#],[mmol+1s-1m-2],[#],[W+1m-2],[W+1m-2],[µmol+1s-1m-2],[m+1s-1],[m],[#],[m],[m],[m]
201810010030,407.67888989732421,7.6959441520097043,2.00670996617133175E-002,0,-6.4472824692044730,0,3.8698957680135666,1,0.54379285758391060,0,8.65340840224134850E-002,1,-9999.,-9999.,-9999.,0.13026968465397246,28.953772638076163,0.74601677197653149,217.88729662843298,2058.0000000000000,-9999.
201810010100,408.62073580075065,7.6514661861217661,2.13856144764365333E-002,1,-3.5286110477859216,1,12.892365896166696,1,-1.0932810014771781,2,0.28830144782294093,1,1.4700038068779042,-1.5835546082519929,0.74986344177907116,0.13447849620166272,58.207832209831693,0.37108408232993112,148.94514837771607,1374.0000000000000,6784.0000000000000
201810010130,410.84030124758328,7.1221916673602257,1.62396139063361485E-002,0,-6.2268823320300397,0,6.6849572108226782,1,0.85820856615777485,0,0.14950846662182013,1,2.9617656347147703,-18.833902331610769,1.7664218935247920,0.11719907092285303,21.832664581257688,0.98934328055140741,403.39945745816016,4029.0000000000000,-9999.
201810010200,414.17362454310557,7.2760784500619948,7.58288135126938406E-002,1,-9.0784216385226237,1,9.5252189451930747,0,1.8412873638300609,0,0.21294388388647234,0,-9.9141884742539030,5.4868748694955647,2.6569989166962800,0.25305935180605077,150.76112572945462,0.14327300818091429,86.523290991441385,158.19217112066647,237.00069872652895
201810010230,415.85654677849260,7.3261024375272292,3.73668355548909051E-002,1,-6.8288091213932169,1,12.308557980456111,1,1.1363908861599918,1,0.27488534534688258,1,-25.101728933820741,1.7931208710324620,1.3472237144144823,0.17726446119248015,68.910744026976474,0.31344894479073182,140.37033413326841,1276.0000000000000,6228.0000000000000
201810010300,415.73573129467616,7.4913973808421490,5.35767964561670931E-002,0,-6.9587865964753215,0,5.3239320577141349,0,0.98547876230240417,0,0.11886187897367968,0,-7.5796379251540236,5.9353517990686964,-9.68544505648805676E-002,0.21211424671793982,115.88740326310783,0.18638781603346402,82.544292793089738,150.91729337769286,226.10160621126366
201810010330,416.60194049077813,7.6445776801731284,0.10492860797014815,0,1.1584496374502242,2,9.1703103956341803,0,1.0820479650464452,0,0.20467500373669259,0,-7.3094265563610925,5.5095776739574429,0.69537481514375632,0.29664801447594885,-1904.5709425731427,-1.13411370073816398E-002,91.690782162773459,167.63999306864065,251.15525762316193
201810010400,419.71155309486045,7.7871088135250037,9.92547636990911419E-002,0,-1.6577466695748047,2,20.055330132432825,1,0.14240762594585304,2,0.44744968083684517,1,-9.4230768232182687,5.1367169502603103,2.5003256264722076,0.28829349896025819,1221.7782029253046,1.76791499048543355E-002,99.168080084250803,181.31087843095946,271.63673505739229
201810010430,428.12830570491451,7.5148692804221264,0.14344149775614620,0,-4.3327878503937116,2,54.028711907257836,0,16.744267421884008,2,1.2050121712904609,0,-8.3691777737949042,-9.8254043666822479,6.7750206588034958,0.34636680842359197,810.52720946152351,2.66493212662780726E-002,106.80613839986276,195.27568506565436,292.55856011711023
201810010500,421.99406590601177,7.6161105642905529,9.40811816823039354E-002,0,-12.057072428811903,0,58.840062408219815,1,4.4443664831640515,1,1.3119190514129253,1,-7.5476958175185365,3.6586674587399322,-4.9426511273877871,0.28037675662179046,154.47793865363334,0.13982579123114139,106.44355882372629,194.61277396165215,291.56539848509590
201810010530,417.88638216536009,7.6719921613619011,0.14784827247934126,0,-6.5194782792532502,0,17.476629967361635,1,2.0190875804482227,1,0.38965739325795296,1,-0.49337148973678030,2.0199238909945021,-3.3104606130019589,0.35144490009265056,562.71376931654652,3.83854122251791469E-002,120.37965399944746,220.09240063245977,329.73852223384506
201810010600,416.32606615297851,7.6622021752910543,6.28184647840185628E-002,0,-3.6096646994386212,0,7.7897136352693543,0,0.22115764397239038,0,0.17366812641285426,0,-1.5121513636823980,-0.35406293139173456,-1.2580838249083477,0.22902831494280951,281.32166230453049,7.67804363981683669E-002,117.64280904689764,215.08857518727046,322.24187990057271
201810010630,416.57777502679141,7.6684973699779624,0.10661499821234018,0,-3.3650988339468038,1,19.623087237931617,0,2.0486391872855814,0,0.43751086499621766,0,1.3006398224408455,0.22766425240895061,0.20295778398073461,0.29836652947469289,667.30570846479259,3.23689723105967248E-002,110.00369170668688,201.12183231785039,301.31715400840829
201810010700,416.06285533170717,7.5892419396497584,0.15700815284345937,0,-7.3988504151037153,0,18.219473562154949,0,1.2873237003373894,0,0.40619230709822052,0,-1.4577991271224404,-2.8673604821203922,-0.41532554185952025,0.36201332038630890,542.13537356176573,3.98424472066645219E-002,114.41452971734597,209.18625096596611,313.39912267276640
201810010730,416.48858198511050,7.5605991673118984,0.13403295681420788,0,-4.3290947452796793,0,18.897575383531890,0,1.2994901054843098,0,0.42128397667807876,0,-1.5366049306879139,-1.0366192133926539,0.34348193328310145,0.33442976897218418,730.51487877206227,2.95681862583112506E-002,115.65600424127410,211.45606234369808,316.79971373039575
201810010800,416.69066192982200,7.4441271507435109,0.11414582839615996,0,-4.7741108167105226,0,14.922116903423483,0,0.82014092076058831,0,0.33261562708127845,0,-3.2240118342324124,-4.2183290342347117,0.16313768053082889,0.30852513821185001,520.13059703937665,4.15280318499793369E-002,120.52762038211225,220.36293037142829,330.14382507979275
201810010830,417.46693933652466,7.4180199574025831,0.14250197580054472,1,-1.8792592104448704,2,20.989067791642032,1,1.7307032821586981,1,0.46782428407928728,1,-1.2868433874005250,-0.94586887760553773,0.62686974283750252,0.34467055237519217,1842.4176067214160,1.17237264348755456E-002,135.06065928124661,246.93396055407101,369.95207016902975
201810010900,417.69644359389815,7.3927025615953097,0.13825575514989097,0,-2.7644509730444740,0,17.037043453564920,0,1.6943214956650601,0,0.37968974101794067,0,-3.1318024592354083,-0.91767117968572964,0.18539304570221093,0.33943927904110566,1196.1617033199157,1.80577591976484146E-002,115.45880724428908,211.09552334045301,316.25956060472640
201810010930,416.93925210138929,7.2555019049877965,6.94074589387818075E-002,0,-4.7934525152922189,0,13.861737609862644,0,1.7607043206331108,0,0.30891300000346045,0,-0.91859543740484439,-4.9747072008673632,-0.61183676729484382,0.24046323540239067,245.27151792493365,8.80656677250669234E-002,100.10352954528273,183.02117839202933,274.19907605653265
201810011000,416.52044280542594,7.1637216609580276,0.11307680959126525,0,-4.8608883229157867,0,15.278606063972237,0,1.6552969910479070,0,0.34048834049020027,0,0.0000000000000000,-3.3272574121633149,-0.33835454708281515,0.30694594550721627,502.99071240513490,4.29431388438883052E-002,102.85827364601656,188.05772918873950,281.74474692972308
201810011030,417.56944172433049,7.2401084134989171,0.13869656273584458,0,-3.9573677963888021,1,12.555908806102392,0,1.5906164208457396,1,0.27980093823000168,0,-0.99744965676356212,2.7707485111030179,0.84792046192853110,0.33986158683836432,838.89549369684460,2.57481416485063272E-002,111.80183287367284,204.40940785881187,306.24254124346805
201810011100,419.48109194266669,7.3634421577821350,0.11164951045139616,0,1.0349542800871387,1,11.806483942466558,0,1.1046133032848702,0,0.26306490087734996,0,-3.3483447441258396,4.4775964387111529,1.5463713283875107,0.30482119182458978,-2314.7483978737423,-9.33146773957856807E-003,117.21668191875015,214.30947889073991,321.07465167843685
201810011130,418.37085201963436,7.2487193436929767,0.13722683433740773,0,-3.4120640582907487,0,10.422947314558705,0,1.0291975764075725,1,0.23222127882286031,0,-1.7609878983085643,-4.1662014846704132,-0.89829459747537888,0.33789248030670604,956.27875771922515,2.25875560087909211E-002,112.81487394526322,206.26157003055755,309.01741768488012
201810011200,416.41486142764137,7.1629429098790274,0.15496434828134076,0,-7.6215573096002451,0,13.862311534408082,0,1.1923535697521679,0,0.30889286343480432,0,3.4651777315515044,-3.1130173304113278,-1.5818035051276389,0.35915004649894511,514.10877782496743,4.20144547840299656E-002,103.04351186858653,188.39640373829837,282.25214311954539
201810011230,414.90819531811303,6.9449642696584517,0.30408374508829045,0,-8.2497358401897554,0,30.286823407707097,0,1.1581342497709126,0,0.67490473847498167,0,0.94274968260040959,-7.9096026582218064,-1.2182782744590341,0.50311449824542964,1305.6310517906936,1.65437241787220503E-002,110.65419952658637,202.31116808145478,303.09899570763929
201810011300,414.53560011920450,6.7934432014389392,0.48078268048478540,0,2.8718188688633774,1,49.701351258667906,0,1.1020050873301246,1,1.1075347501612118,0,2.35690680005030753E-002,-5.4983230842253663,-0.30128926084050872,0.63259201344987681,-7455.4930557181442,-2.89719269249851105E-003,124.90177456418159,228.36027928117491,342.12531105436750
201810011330,413.67332202753056,6.6409851232486785,0.31374396396832815,0,0.48486806839121932,0,40.227508640156181,0,1.0978156485315644,0,0.89648869442699997,0,1.8537121513199806,-5.5308863767788754,-0.69712928649366546,0.51105147677256790,-23283.740913235251,-9.27685979692457617E-004,114.16327269030393,208.72687298621454,312.71089074947071
201810011400,412.12248148078538,6.4370660144718519,0.28345796220681557,0,13.199750156351227,1,34.465216905912619,0,-1.6886699365487399,1,0.76825468462957891,0,5.8397062183757020,-7.3909527517947113,-1.2529503154264821,0.48590810103295079,-735.24080168591411,-2.93781301996175921E-002,107.13384101675665,195.87482996472545,293.45618835441394
201810011430,411.07911362844493,6.4029450875604788,0.56488678928307745,0,75.680379655700008,0,53.731424439255598,0,-4.1557004298082685,0,1.1981230371878429,0,8.4607024866851468,-1.2338974460854020,-0.84133462175681795,0.68660254128808029,-361.63560476972037,-5.97286321233615469E-002,121.40494482589277,221.96695926293916,332.54695265160939
201810011500,410.30863775066842,6.3304769574859829,0.51775199909224257,0,78.922515681804455,0,41.799948976874347,0,-3.3445566514230722,0,0.93257653460028833,0,13.357702518794651,-2.6132315628646716,-0.61986714515105212,0.65807515363157298,-305.27365152029915,-7.07561883982762013E-002,108.59212644469518,198.54104082327967,297.45065806775779
201810011530,409.47309071780575,6.5198017242793433,0.30102288363352081,0,79.464614556200232,0,54.342521569455229,0,-4.7052655697736485,0,1.2129404028076047,0,10.799432514212130,6.8124869148126548,-0.67107155103574134,0.50222781686504758,-134.76982572300631,-0.16027326505856501,100.60742339470534,183.94245705747440,275.57931937632236
201810011600,409.00571884737781,6.6883068074948806,0.41281501044277968,0,77.582685417789762,0,40.523739385937105,0,-5.2683755067229106,0,0.90479338377060359,0,7.9180164791756003,6.0536095136170296,-0.37489001166653790,0.58853315224242686,-222.12904690978647,-9.72407719768969975E-002,115.60184282743037,211.35703800529475,316.65135722687057
201810011630,408.55290989438191,6.7787651931335633,0.41581837295126040,0,107.74154913952341,0,43.042535751474624,0,-5.2738944801889955,0,0.96137524815312603,0,8.7455576435179267,3.2432794091538910,-0.36261488271080233,0.59116377723009284,-162.07460487830164,-0.13327195840593892,113.48547791779326,207.48764797050976,310.85430585958130
201810011700,407.18463712651834,6.9553462043504721,0.36759150853050043,0,100.56495851718061,0,30.234958534114540,0,-4.4891661290154223,0,0.67577827046346528,0,16.828441515399096,6.3055762172011409,-1.0920645489687690,0.55677630821674884,-144.99406411635132,-0.14897161571157116,115.53421572856121,211.23339410000500,316.46611612587702
201810011730,406.21744850283142,6.9782359530449760,0.40870659194064551,1,190.14410489800269,1,66.331961582597657,1,-6.2614142096421368,1,1.4837308508472344,1,18.883147081800999,0.81470239221630514,-0.77001898503813349,0.58782547511024497,-90.270993855483638,-0.23927951911751194,129.58655280502884,236.92554803882990,354.95764444965482
201810011800,405.38196897787998,7.0308726147046592,0.20641707759621306,1,109.14773024010157,0,66.700598938423838,0,-8.3105192889908999,0,1.4926862759100050,0,11.527612679410673,1.8689820955528180,-0.66388280568157887,0.41815476517230515,-56.603357655974143,-0.38160280404708907,106.21581273513017,194.19638147580895,290.94156666465744
201810011830,405.08919962893754,7.0360806705783654,0.20857602342583034,0,50.056438702309840,0,54.217860966498435,0,-5.1878148216093392,0,1.2132728954263354,0,-1.2657962011616208,0.18486537055425012,-0.23255284328781270,0.42041348659423688,-125.38383795127061,-0.17227100679750018,114.22165947556623,208.83362265118410,312.87082119993090
201810011900,405.09160371138410,7.0505680152104402,0.12489831425112612,0,27.671165542936286,0,29.936352740468585,0,-2.9288355033010420,0,0.66996729861841542,0,2.1522467523115618,0.51392090123926071,1.90858525585794851E-003,0.32541745843010839,-105.17289625730420,-0.20537610704525874,101.88646409079189,186.28095137902807,279.08280999946754
201810011930,405.38008225258108,7.1936649365967948,5.39351743981839812E-002,1,-2.7329045907337313,1,23.634294811325066,0,-0.82151101952732608,0,0.52882469521333431,0,-4.7789757376021971,5.0812562234115877,0.22920463561193211,0.21376497443877665,301.87257625856006,7.15533695299938738E-002,94.774777367936750,173.27851989350177,259.60279828091689
201810012000,405.54902236085996,7.4592976239937157,7.41431862229335326E-002,0,-1.5980344816931487,2,20.339234450876202,0,-0.57033431352187225,0,0.45500205448343806,0,-5.0441341354495322,9.4389681678092323,0.13429335655444399,0.25058326257624175,831.45242551054594,2.59786361038476903E-002,114.22401314912253,208.83792591711071,312.87726827644667
201810012030,418.70607127965241,7.9208372228025921,8.35749974354134673E-002,0,-20.339645896643319,1,-203.52860160104305,2,20.148572832959822,1,-4.5507658377186981,2,-12.291922548571318,16.431032519289541,10.473055787665915,0.26588635272694677,78.015460282553818,0.27686819922320310,97.230608114621390,177.76856174548539,266.32969916793843
201810012100,425.83174306415515,8.2543094013754175,0.11158581726998919,0,-22.640237594259585,1,-50.094369765868947,1,36.448006879024035,0,-1.1182409095508099,1,-40.158910975632445,11.965658214998962,5.7075438984208517,0.30629193821416578,107.15264459246367,0.20158158561696560,86.707120456158677,158.52827001157036,237.50423611033963
201810012130,425.82181227257507,8.4338721380630766,0.24402427019960721,0,4.7790583394175874,1,-9999.,-9999.,21.031485917364975,1,-9999.,-9999.,-11.056907013743830,-1843.3274196079342,-7.96218523692625649E-003,0.45274106357386018,-1638.5960554038252,-1.31820163540408205E-002,115.91076472227371,211.92184575465339,317.49754215685704
201810012200,418.94813190270611,8.3751683659681238,0.40139649667390531,0,16.311113214428442,0,21.895806276252593,1,-13.413082074206022,0,0.48846013243432268,1,-4.6616575175935626,-2.1107645655172691,-5.5135497885081781,0.58052182239984362,-1011.9225675883117,-2.13455067530302356E-002,119.37279871017324,218.25154804364215,326.98058960853507
201810012230,418.89479824935296,8.1688529224675612,0.40063219143658529,0,10.647554791490274,1,57.454047415694127,0,-14.333685742839451,0,1.2812912952461206,0,-7.9721884824830775,-7.4259378868643244,-4.28102885997657945E-002,0.57974266362666593,-1543.3052068913064,-1.39959354141680602E-002,112.45845167817355,205.60991645126592,308.04112187627175
201810012300,431.51727664903098,8.0903056569716494,0.26051345822020916,0,0.21832315399691996,0,34.250200481998455,0,-8.2413158876701242,0,0.76369373206722024,0,-4.0273700765271894,-2.8292663466565986,10.137795068090741,0.46735288491861932,-39428.672787251664,-5.47824678668460113E-004,107.21413302125438,196.02162935676873,293.67612059404638
201810012330,430.02840607835327,8.0905608762222130,0.38798358877857503,0,5.3517044481114393,1,-36.526475537132711,2,1.0992219353296839,2,-0.81443009572877667,2,-0.56969207570321123,9.19203955692826126E-003,-1.1956427813490682,0.57037926657256699,-2923.5472921916253,-7.38828479282360121E-003,120.22639601823168,219.81219616367122,329.31872487966041
201810020000,423.18528375932550,8.1525312886465056,0.31088863043522835,0,-2.7554438403885064,2,41.610783402233608,1,4.0144464916667220,1,0.92787314931369513,1,2.0755130657646474,2.2313493578020740,-5.4943991178744787,0.51062711913785985,4074.5441770335483,5.30120648138996883E-003,118.55740900823281,216.76075561328776,324.74711088991558
